Year,Month,Day,Hour,Minute,Value (Times are PST for temperature in C)
2014,09,21,00,00,14.20
2014,09,21,00,01,14.20
2014,09,21,00,02,14.20
2014,09,21,00,03,14.20
2014,09,21,00,04,14.10
2014,09,21,00,05,14.10
2014,09,21,00,06,14.10
2014,09,21,00,07,14.10
2014,09,21,00,08,14.00
2014,09,21,00,09,14.00
2014,09,21,00,10,13.90
2014,09,21,00,11,13.90
2014,09,21,00,12,13.90
2014,09,21,00,13,13.90
2014,09,21,00,14,13.90
2014,09,21,00,15,13.90
2014,09,21,00,16,13.80
2014,09,21,00,17,13.80
2014,09,21,00,18,13.80
2014,09,21,00,19,13.80
2014,09,21,00,20,13.70
2014,09,21,00,21,13.70
2014,09,21,00,22,13.70
2014,09,21,00,23,13.70
2014,09,21,00,24,13.70
2014,09,21,00,25,13.70
2014,09,21,00,26,13.70
2014,09,21,00,27,13.60
2014,09,21,00,28,13.60
2014,09,21,00,29,13.60
2014,09,21,00,30,13.60
2014,09,21,00,31,13.60
2014,09,21,00,32,13.60
2014,09,21,00,33,13.60
2014,09,21,00,34,13.60
2014,09,21,00,35,13.50
2014,09,21,00,36,13.50
2014,09,21,00,37,13.50
2014,09,21,00,38,13.50
2014,09,21,00,39,13.40
2014,09,21,00,40,13.40
2014,09,21,00,41,13.40
2014,09,21,00,42,13.40
2014,09,21,00,43,13.40
2014,09,21,00,44,13.40
2014,09,21,00,45,13.40
2014,09,21,00,46,13.30
2014,09,21,00,47,13.30
2014,09,21,00,48,13.30
2014,09,21,00,49,13.30
2014,09,21,00,50,13.30
2014,09,21,00,51,13.30
2014,09,21,00,52,13.30
2014,09,21,00,53,13.30
2014,09,21,00,54,13.30
2014,09,21,00,55,13.20
2014,09,21,00,56,13.20
2014,09,21,00,57,13.20
2014,09,21,00,58,13.20
2014,09,21,00,59,13.20
2014,09,21,01,00,13.20
2014,09,21,01,01,13.20
2014,09,21,01,02,13.10
2014,09,21,01,04,13.10
2014,09,21,01,05,13.10
2014,09,21,01,06,13.10
2014,09,21,01,07,13.10
2014,09,21,01,08,13.10
2014,09,21,01,09,13.00
2014,09,21,01,10,13.00
2014,09,21,01,11,13.00
2014,09,21,01,12,13.00
2014,09,21,01,13,13.00
2014,09,21,01,14,12.90
2014,09,21,01,15,12.90
2014,09,21,01,16,12.90
2014,09,21,01,17,12.90
2014,09,21,01,18,12.90
2014,09,21,01,19,12.90
2014,09,21,01,20,12.90
2014,09,21,01,21,12.80
2014,09,21,01,22,12.80
2014,09,21,01,23,12.80
2014,09,21,01,24,12.80
2014,09,21,01,25,12.80
2014,09,21,01,26,12.80
2014,09,21,01,27,12.80
2014,09,21,01,28,12.80
2014,09,21,01,29,12.70
2014,09,21,01,30,12.70
2014,09,21,01,31,12.70
2014,09,21,01,32,12.70
2014,09,21,01,33,12.70
2014,09,21,01,34,12.70
2014,09,21,01,35,12.70
2014,09,21,01,36,12.70
2014,09,21,01,37,12.70
2014,09,21,01,38,12.60
2014,09,21,01,39,12.60
2014,09,21,01,40,12.60
2014,09,21,01,41,12.60
2014,09,21,01,42,12.60
2014,09,21,01,43,12.60
2014,09,21,01,44,12.60
2014,09,21,01,45,12.50
2014,09,21,01,46,12.50
2014,09,21,01,47,12.50
2014,09,21,01,48,12.40
2014,09,21,01,49,12.40
2014,09,21,01,50,12.40
2014,09,21,01,51,12.40
2014,09,21,01,52,12.40
2014,09,21,01,53,12.40
2014,09,21,01,54,12.40
2014,09,21,01,55,12.40
2014,09,21,01,56,12.40
2014,09,21,01,57,12.40
2014,09,21,01,58,12.40
2014,09,21,01,59,12.40
2014,09,21,02,00,12.40
2014,09,21,02,01,12.40
2014,09,21,02,02,12.40
2014,09,21,02,03,12.40
2014,09,21,02,04,12.40
2014,09,21,02,05,12.40
2014,09,21,02,06,12.40
2014,09,21,02,07,12.30
2014,09,21,02,08,12.30
2014,09,21,02,09,12.30
2014,09,21,02,10,12.30
2014,09,21,02,11,12.30
2014,09,21,02,12,12.30
2014,09,21,02,13,12.30
2014,09,21,02,14,12.30
2014,09,21,02,15,12.30
2014,09,21,02,16,12.20
2014,09,21,02,17,12.20
2014,09,21,02,18,12.20
2014,09,21,02,19,12.20
2014,09,21,02,20,12.20
2014,09,21,02,21,12.20
2014,09,21,02,22,12.20
2014,09,21,02,23,12.20
2014,09,21,02,24,12.20
2014,09,21,02,25,12.20
2014,09,21,02,26,12.20
2014,09,21,02,27,12.10
2014,09,21,02,28,12.10
2014,09,21,02,29,12.10
2014,09,21,02,30,12.10
2014,09,21,02,31,12.10
2014,09,21,02,32,12.10
2014,09,21,02,33,12.00
2014,09,21,02,34,12.00
2014,09,21,02,35,12.00
2014,09,21,02,36,12.00
2014,09,21,02,37,12.00
2014,09,21,02,38,12.00
2014,09,21,02,39,12.00
2014,09,21,02,40,11.90
2014,09,21,02,41,11.90
2014,09,21,02,42,11.90
2014,09,21,02,43,11.90
2014,09,21,02,44,11.90
2014,09,21,02,45,11.90
2014,09,21,02,46,11.90
2014,09,21,02,47,11.90
2014,09,21,02,48,11.90
2014,09,21,02,49,11.90
2014,09,21,02,50,11.90
2014,09,21,02,51,11.80
2014,09,21,02,52,11.80
2014,09,21,02,53,11.80
2014,09,21,02,54,11.80
2014,09,21,02,55,11.80
2014,09,21,02,56,11.80
2014,09,21,02,57,11.80
2014,09,21,02,58,11.80
2014,09,21,02,59,11.80
2014,09,21,03,00,11.80
2014,09,21,03,01,11.70
2014,09,21,03,02,11.70
2014,09,21,03,03,11.70
2014,09,21,03,04,11.70
2014,09,21,03,05,11.70
2014,09,21,03,06,11.70
2014,09,21,03,07,11.70
2014,09,21,03,08,11.70
2014,09,21,03,09,11.60
2014,09,21,03,10,11.60
2014,09,21,03,11,11.60
2014,09,21,03,12,11.60
2014,09,21,03,13,11.60
2014,09,21,03,14,11.60
2014,09,21,03,15,11.60
2014,09,21,03,16,11.60
2014,09,21,03,17,11.60
2014,09,21,03,18,11.50
2014,09,21,03,19,11.50
2014,09,21,03,20,11.50
2014,09,21,03,21,11.50
2014,09,21,03,22,11.50
2014,09,21,03,23,11.50
2014,09,21,03,24,11.50
2014,09,21,03,25,11.50
2014,09,21,03,26,11.50
2014,09,21,03,27,11.50
2014,09,21,03,28,11.40
2014,09,21,03,29,11.40
2014,09,21,03,30,11.40
2014,09,21,03,31,11.40
2014,09,21,03,32,11.40
2014,09,21,03,33,11.40
2014,09,21,03,34,11.40
2014,09,21,03,35,11.40
2014,09,21,03,36,11.40
2014,09,21,03,37,11.40
2014,09,21,03,38,11.40
2014,09,21,03,39,11.30
2014,09,21,03,40,11.30
2014,09,21,03,41,11.30
2014,09,21,03,42,11.30
2014,09,21,03,43,11.30
2014,09,21,03,44,11.30
2014,09,21,03,45,11.30
2014,09,21,03,46,11.30
2014,09,21,03,47,11.30
2014,09,21,03,48,11.30
2014,09,21,03,49,11.30
2014,09,21,03,50,11.30
2014,09,21,03,51,11.30
2014,09,21,03,52,11.30
2014,09,21,03,53,11.30
2014,09,21,03,54,11.30
2014,09,21,03,55,11.30
2014,09,21,03,56,11.30
2014,09,21,03,57,11.30
2014,09,21,03,58,11.30
2014,09,21,03,59,11.30
2014,09,21,04,00,11.30
2014,09,21,04,01,11.30
2014,09,21,04,02,11.30
2014,09,21,04,03,11.30
2014,09,21,04,04,11.30
2014,09,21,04,05,11.30
2014,09,21,04,06,11.20
2014,09,21,04,07,11.30
2014,09,21,04,08,11.20
2014,09,21,04,09,11.20
2014,09,21,04,10,11.20
2014,09,21,04,11,11.20
2014,09,21,04,12,11.20
2014,09,21,04,13,11.20
2014,09,21,04,14,11.20
2014,09,21,04,15,11.20
2014,09,21,04,16,11.10
2014,09,21,04,17,11.10
2014,09,21,04,18,11.10
2014,09,21,04,19,11.10
2014,09,21,04,20,11.10
2014,09,21,04,21,11.10
2014,09,21,04,22,11.10
2014,09,21,04,23,11.10
2014,09,21,04,24,11.10
2014,09,21,04,25,11.00
2014,09,21,04,26,11.00
2014,09,21,04,27,11.00
2014,09,21,04,28,11.00
2014,09,21,04,29,11.00
2014,09,21,04,30,11.00
2014,09,21,04,31,11.00
2014,09,21,04,32,11.00
2014,09,21,04,33,11.00
2014,09,21,04,34,11.00
2014,09,21,04,35,11.00
2014,09,21,04,36,10.90
2014,09,21,04,37,10.90
2014,09,21,04,38,10.90
2014,09,21,04,39,10.90
2014,09,21,04,40,10.90
2014,09,21,04,41,10.90
2014,09,21,04,42,10.90
2014,09,21,04,43,10.90
2014,09,21,04,44,10.90
2014,09,21,04,45,10.90
2014,09,21,04,46,10.90
2014,09,21,04,47,10.90
2014,09,21,04,48,10.90
2014,09,21,04,49,10.90
2014,09,21,04,50,10.90
2014,09,21,04,51,10.90
2014,09,21,04,52,10.80
2014,09,21,04,53,10.80
2014,09,21,04,54,10.80
2014,09,21,04,55,10.80
2014,09,21,04,56,10.80
2014,09,21,04,57,10.80
2014,09,21,04,58,10.80
2014,09,21,04,59,10.80
2014,09,21,05,00,10.80
2014,09,21,05,01,10.80
2014,09,21,05,02,10.70
2014,09,21,05,03,10.70
2014,09,21,05,04,10.70
2014,09,21,05,05,10.70
2014,09,21,05,06,10.70
2014,09,21,05,07,10.70
2014,09,21,05,08,10.70
2014,09,21,05,09,10.70
2014,09,21,05,10,10.70
2014,09,21,05,11,10.70
2014,09,21,05,12,10.70
2014,09,21,05,13,10.70
2014,09,21,05,14,10.70
2014,09,21,05,15,10.60
2014,09,21,05,16,10.60
2014,09,21,05,17,10.60
2014,09,21,05,18,10.60
2014,09,21,05,19,10.60
2014,09,21,05,20,10.60
2014,09,21,05,21,10.60
2014,09,21,05,22,10.60
2014,09,21,05,23,10.60
2014,09,21,05,24,10.60
2014,09,21,05,25,10.60
2014,09,21,05,26,10.60
2014,09,21,05,27,10.60
2014,09,21,05,28,10.60
2014,09,21,05,29,10.60
2014,09,21,05,30,10.60
2014,09,21,05,31,10.60
2014,09,21,05,32,10.60
2014,09,21,05,33,10.60
2014,09,21,05,34,10.60
2014,09,21,05,35,10.60
2014,09,21,05,36,10.60
2014,09,21,05,37,10.60
2014,09,21,05,38,10.60
2014,09,21,05,39,10.60
2014,09,21,05,40,10.60
2014,09,21,05,41,10.60
2014,09,21,05,42,10.60
2014,09,21,05,43,10.60
2014,09,21,05,44,10.60
2014,09,21,05,45,10.60
2014,09,21,05,46,10.50
2014,09,21,05,47,10.60
2014,09,21,05,48,10.60
2014,09,21,05,49,10.50
2014,09,21,05,50,10.50
2014,09,21,05,51,10.50
2014,09,21,05,52,10.50
2014,09,21,05,53,10.50
2014,09,21,05,54,10.50
2014,09,21,05,55,10.50
2014,09,21,05,56,10.50
2014,09,21,05,57,10.50
2014,09,21,05,58,10.40
2014,09,21,05,59,10.40
2014,09,21,06,00,10.40
2014,09,21,06,01,10.40
2014,09,21,06,02,10.40
2014,09,21,06,03,10.40
2014,09,21,06,04,10.40
2014,09,21,06,05,10.40
2014,09,21,06,06,10.40
2014,09,21,06,07,10.40
2014,09,21,06,08,10.40
2014,09,21,06,09,10.40
2014,09,21,06,10,10.40
2014,09,21,06,11,10.40
2014,09,21,06,12,10.40
2014,09,21,06,13,10.40
2014,09,21,06,14,10.40
2014,09,21,06,15,10.40
2014,09,21,06,16,10.40
2014,09,21,06,17,10.40
2014,09,21,06,18,10.40
2014,09,21,06,19,10.40
2014,09,21,06,20,10.40
2014,09,21,06,21,10.40
2014,09,21,06,22,10.40
2014,09,21,06,23,10.40
2014,09,21,06,24,10.30
2014,09,21,06,25,10.30
2014,09,21,06,26,10.30
2014,09,21,06,27,10.30
2014,09,21,06,28,10.30
2014,09,21,06,29,10.30
2014,09,21,06,30,10.30
2014,09,21,06,31,10.30
2014,09,21,06,32,10.30
2014,09,21,06,33,10.30
2014,09,21,06,34,10.30
2014,09,21,06,35,10.30
2014,09,21,06,36,10.30
2014,09,21,06,37,10.30
2014,09,21,06,38,10.30
2014,09,21,06,39,10.30
2014,09,21,06,40,10.20
2014,09,21,06,41,10.20
2014,09,21,06,42,10.20
2014,09,21,06,43,10.20
2014,09,21,06,44,10.20
2014,09,21,06,45,10.20
2014,09,21,06,46,10.20
2014,09,21,06,47,10.20
2014,09,21,06,48,10.20
2014,09,21,06,49,10.20
2014,09,21,06,50,10.20
2014,09,21,06,51,10.20
2014,09,21,06,52,10.20
2014,09,21,06,53,10.20
2014,09,21,06,54,10.10
2014,09,21,06,55,10.10
2014,09,21,06,56,10.10
2014,09,21,06,57,10.10
2014,09,21,06,58,10.10
2014,09,21,06,59,10.10
2014,09,21,07,00,10.10
2014,09,21,07,01,10.10
2014,09,21,07,02,10.10
2014,09,21,07,03,10.10
2014,09,21,07,04,10.10
2014,09,21,07,05,10.10
2014,09,21,07,06,10.10
2014,09,21,07,07,10.10
2014,09,21,07,08,10.10
2014,09,21,07,09,10.10
2014,09,21,07,10,10.10
2014,09,21,07,11,10.10
2014,09,21,07,12,10.10
2014,09,21,07,13,10.10
2014,09,21,07,14,10.10
2014,09,21,07,15,10.10
2014,09,21,07,16,10.10
2014,09,21,07,17,10.10
2014,09,21,07,18,10.10
2014,09,21,07,19,10.10
2014,09,21,07,20,10.10
2014,09,21,07,21,10.10
2014,09,21,07,22,10.10
2014,09,21,07,23,10.10
2014,09,21,07,24,10.10
2014,09,21,07,25,10.10
2014,09,21,07,26,10.10
2014,09,21,07,27,10.10
2014,09,21,07,28,10.10
2014,09,21,07,29,10.10
2014,09,21,07,30,10.10
2014,09,21,07,31,10.10
2014,09,21,07,32,10.10
2014,09,21,07,33,10.10
2014,09,21,07,34,10.00
2014,09,21,07,35,10.00
2014,09,21,07,36,10.00
2014,09,21,07,37,10.00
2014,09,21,07,38,10.00
2014,09,21,07,39,10.00
2014,09,21,07,40,10.00
2014,09,21,07,41,10.00
2014,09,21,07,42,10.00
2014,09,21,07,43,10.00
2014,09,21,07,44,10.10
2014,09,21,07,45,10.10
2014,09,21,07,46,10.00
2014,09,21,07,47,10.10
2014,09,21,07,48,10.10
2014,09,21,07,49,10.10
2014,09,21,07,50,10.10
2014,09,21,07,51,10.10
2014,09,21,07,52,10.10
2014,09,21,07,53,10.10
2014,09,21,07,54,10.10
2014,09,21,07,55,10.10
2014,09,21,07,56,10.10
2014,09,21,07,57,10.10
2014,09,21,07,58,10.20
2014,09,21,07,59,10.20
2014,09,21,08,00,10.20
2014,09,21,08,01,10.20
2014,09,21,08,02,10.20
2014,09,21,08,03,10.30
2014,09,21,08,04,10.30
2014,09,21,08,05,10.30
2014,09,21,08,06,10.30
2014,09,21,08,07,10.30
2014,09,21,08,08,10.40
2014,09,21,08,09,10.40
2014,09,21,08,10,10.40
2014,09,21,08,11,10.50
2014,09,21,08,12,10.50
2014,09,21,08,13,10.50
2014,09,21,08,14,10.60
2014,09,21,08,15,10.60
2014,09,21,08,16,10.60
2014,09,21,08,17,10.70
2014,09,21,08,18,10.70
2014,09,21,08,19,10.70
2014,09,21,08,20,10.70
2014,09,21,08,21,10.80
2014,09,21,08,22,10.80
2014,09,21,08,23,10.80
2014,09,21,08,24,10.90
2014,09,21,08,25,10.90
2014,09,21,08,26,11.00
2014,09,21,08,27,11.00
2014,09,21,08,28,11.10
2014,09,21,08,29,11.10
2014,09,21,08,30,11.20
2014,09,21,08,31,11.20
2014,09,21,08,32,11.30
2014,09,21,08,33,11.30
2014,09,21,08,34,11.40
2014,09,21,08,35,11.40
2014,09,21,08,36,11.50
2014,09,21,08,37,11.60
2014,09,21,08,38,11.60
2014,09,21,08,39,11.70
2014,09,21,08,40,11.70
2014,09,21,08,41,11.80
2014,09,21,08,42,11.80
2014,09,21,08,43,11.80
2014,09,21,08,44,11.90
2014,09,21,08,45,11.90
2014,09,21,08,46,12.00
2014,09,21,08,47,12.10
2014,09,21,08,48,12.10
2014,09,21,08,49,12.20
2014,09,21,08,50,12.20
2014,09,21,08,51,12.30
2014,09,21,08,52,12.30
2014,09,21,08,53,12.40
2014,09,21,08,54,12.40
2014,09,21,08,55,12.50
2014,09,21,08,56,12.60
2014,09,21,08,57,12.60
2014,09,21,08,58,12.70
2014,09,21,08,59,12.70
2014,09,21,09,00,12.70
2014,09,21,09,01,12.80
2014,09,21,09,02,12.80
2014,09,21,09,03,12.90
2014,09,21,09,04,12.90
2014,09,21,09,05,12.90
2014,09,21,09,06,13.00
2014,09,21,09,07,13.10
2014,09,21,09,08,13.10
2014,09,21,09,09,13.20
2014,09,21,09,10,13.20
2014,09,21,09,11,13.30
2014,09,21,09,12,13.40
2014,09,21,09,13,13.40
2014,09,21,09,14,13.50
2014,09,21,09,15,13.60
2014,09,21,09,16,13.70
2014,09,21,09,17,13.70
2014,09,21,09,18,13.80
2014,09,21,09,19,13.90
2014,09,21,09,20,13.90
2014,09,21,09,21,14.00
2014,09,21,09,22,14.10
2014,09,21,09,23,14.20
2014,09,21,09,24,14.20
2014,09,21,09,25,14.30
2014,09,21,09,26,14.30
2014,09,21,09,27,14.40
2014,09,21,09,28,14.50
2014,09,21,09,29,14.60
2014,09,21,09,30,14.60
2014,09,21,09,31,14.70
2014,09,21,09,32,14.80
2014,09,21,09,33,14.80
2014,09,21,09,34,14.90
2014,09,21,09,35,15.00
2014,09,21,09,36,15.10
2014,09,21,09,37,15.10
2014,09,21,09,38,15.20
2014,09,21,09,39,15.30
2014,09,21,09,40,15.30
2014,09,21,09,41,15.30
2014,09,21,09,42,15.40
2014,09,21,09,43,15.40
2014,09,21,09,44,15.40
2014,09,21,09,45,15.40
2014,09,21,09,46,15.50
2014,09,21,09,47,15.60
2014,09,21,09,48,15.60
2014,09,21,09,49,15.60
2014,09,21,09,50,15.60
2014,09,21,09,51,15.60
2014,09,21,09,52,15.60
2014,09,21,09,53,15.60
2014,09,21,09,54,15.60
2014,09,21,09,55,15.60
2014,09,21,09,56,15.60
2014,09,21,09,57,15.70
2014,09,21,09,58,15.70
2014,09,21,09,59,15.70
2014,09,21,10,00,15.70
2014,09,21,10,01,15.70
2014,09,21,10,02,15.70
2014,09,21,10,03,15.70
2014,09,21,10,04,15.80
2014,09,21,10,05,15.80
2014,09,21,10,06,15.80
2014,09,21,10,07,15.90
2014,09,21,10,08,15.90
2014,09,21,10,09,15.90
2014,09,21,10,10,16.00
2014,09,21,10,11,16.00
2014,09,21,10,12,16.10
2014,09,21,10,13,16.10
2014,09,21,10,14,16.10
2014,09,21,10,15,16.20
2014,09,21,10,16,16.20
2014,09,21,10,17,16.20
2014,09,21,10,18,16.30
2014,09,21,10,19,16.30
2014,09,21,10,20,16.40
2014,09,21,10,21,16.40
2014,09,21,10,22,16.40
2014,09,21,10,23,16.50
2014,09,21,10,24,16.50
2014,09,21,10,25,16.50
2014,09,21,10,26,16.60
2014,09,21,10,27,16.60
2014,09,21,10,28,16.60
2014,09,21,10,29,16.70
2014,09,21,10,30,16.70
2014,09,21,10,31,16.70
2014,09,21,10,32,16.80
2014,09,21,10,33,16.90
2014,09,21,10,34,16.90
2014,09,21,10,35,17.10
2014,09,21,10,36,17.10
2014,09,21,10,37,17.20
2014,09,21,10,38,17.20
2014,09,21,10,39,17.30
2014,09,21,10,40,17.40
2014,09,21,10,41,17.50
2014,09,21,10,42,17.60
2014,09,21,10,43,17.60
2014,09,21,10,44,17.70
2014,09,21,10,45,17.80
2014,09,21,10,46,17.90
2014,09,21,10,47,18.00
2014,09,21,10,48,18.10
2014,09,21,10,49,18.20
2014,09,21,10,50,18.30
2014,09,21,10,51,18.30
2014,09,21,10,52,18.40
2014,09,21,10,53,18.60
2014,09,21,10,54,18.60
2014,09,21,10,55,18.70
2014,09,21,10,56,18.80
2014,09,21,10,57,18.90
2014,09,21,10,58,19.00
2014,09,21,10,59,19.10
2014,09,21,11,00,19.20
2014,09,21,11,01,19.20
2014,09,21,11,02,19.30
2014,09,21,11,03,19.30
2014,09,21,11,04,19.30
2014,09,21,11,05,19.40
2014,09,21,11,06,19.40
2014,09,21,11,07,19.40
2014,09,21,11,08,19.50
2014,09,21,11,09,19.50
2014,09,21,11,10,19.60
2014,09,21,11,11,19.60
2014,09,21,11,12,19.60
2014,09,21,11,13,19.60
2014,09,21,11,14,19.70
2014,09,21,11,15,19.70
2014,09,21,11,16,19.70
2014,09,21,11,17,19.80
2014,09,21,11,18,19.80
2014,09,21,11,19,19.90
2014,09,21,11,20,20.00
2014,09,21,11,21,20.10
2014,09,21,11,22,20.10
2014,09,21,11,23,20.10
2014,09,21,11,24,20.10
2014,09,21,11,25,20.10
2014,09,21,11,26,20.10
2014,09,21,11,27,20.10
2014,09,21,11,28,20.10
2014,09,21,11,29,20.20
2014,09,21,11,30,20.20
2014,09,21,11,31,20.30
2014,09,21,11,32,20.30
2014,09,21,11,33,20.40
2014,09,21,11,34,20.40
2014,09,21,11,35,20.40
2014,09,21,11,36,20.50
2014,09,21,11,37,20.60
2014,09,21,11,38,20.60
2014,09,21,11,39,20.70
2014,09,21,11,40,20.70
2014,09,21,11,41,20.80
2014,09,21,11,42,20.80
2014,09,21,11,43,20.90
2014,09,21,11,44,21.00
2014,09,21,11,45,21.10
2014,09,21,11,46,21.20
2014,09,21,11,47,21.20
2014,09,21,11,48,21.30
2014,09,21,11,49,21.30
2014,09,21,11,50,21.40
2014,09,21,11,51,21.40
2014,09,21,11,52,21.50
2014,09,21,11,53,21.60
2014,09,21,11,54,21.70
2014,09,21,11,55,21.70
2014,09,21,11,56,21.70
2014,09,21,11,57,21.70
2014,09,21,11,58,21.70
2014,09,21,11,59,21.80
2014,09,21,12,00,21.80
2014,09,21,12,01,21.80
2014,09,21,12,02,21.80
2014,09,21,12,03,21.80
2014,09,21,12,04,21.80
2014,09,21,12,05,21.90
2014,09,21,12,06,21.90
2014,09,21,12,07,22.10
2014,09,21,12,08,22.20
2014,09,21,12,09,22.20
2014,09,21,12,10,22.30
2014,09,21,12,11,22.40
2014,09,21,12,12,22.50
2014,09,21,12,13,22.60
2014,09,21,12,14,22.70
2014,09,21,12,15,22.80
2014,09,21,12,16,22.90
2014,09,21,12,17,23.00
2014,09,21,12,18,23.10
2014,09,21,12,19,23.20
2014,09,21,12,20,23.20
2014,09,21,12,21,23.30
2014,09,21,12,22,23.40
2014,09,21,12,23,23.40
2014,09,21,12,24,23.60
2014,09,21,12,25,23.70
2014,09,21,12,26,23.80
2014,09,21,12,27,23.90
2014,09,21,12,28,23.90
2014,09,21,12,29,24.00
2014,09,21,12,30,24.10
2014,09,21,12,31,24.20
2014,09,21,12,32,24.20
2014,09,21,12,33,24.30
2014,09,21,12,34,24.40
2014,09,21,12,35,24.40
2014,09,21,12,36,24.60
2014,09,21,12,37,24.70
2014,09,21,12,38,24.80
2014,09,21,12,39,24.90
2014,09,21,12,40,25.00
2014,09,21,12,41,25.10
2014,09,21,12,42,25.10
2014,09,21,12,43,25.10
2014,09,21,12,44,25.10
2014,09,21,12,45,25.00
2014,09,21,12,46,25.00
2014,09,21,12,47,25.10
2014,09,21,12,48,25.10
2014,09,21,12,49,25.20
2014,09,21,12,50,25.30
2014,09,21,12,51,25.40
2014,09,21,12,52,25.50
2014,09,21,12,53,25.60
2014,09,21,12,54,25.60
2014,09,21,12,55,25.70
2014,09,21,12,56,25.70
2014,09,21,12,57,25.80
2014,09,21,12,58,25.90
2014,09,21,12,59,25.90
2014,09,21,13,00,25.90
2014,09,21,13,01,25.80
2014,09,21,13,02,25.80
2014,09,21,13,03,25.80
2014,09,21,13,04,25.80
2014,09,21,13,05,25.80
2014,09,21,13,06,25.80
2014,09,21,13,07,25.80
2014,09,21,13,08,25.90
2014,09,21,13,09,25.90
2014,09,21,13,10,26.00
2014,09,21,13,11,26.10
2014,09,21,13,12,26.10
2014,09,21,13,13,26.20
2014,09,21,13,14,26.20
2014,09,21,13,15,26.20
2014,09,21,13,16,26.20
2014,09,21,13,17,26.20
2014,09,21,13,18,26.20
2014,09,21,13,19,26.20
2014,09,21,13,20,26.20
2014,09,21,13,21,26.30
2014,09,21,13,22,26.30
2014,09,21,13,23,26.30
2014,09,21,13,24,26.40
2014,09,21,13,25,26.50
2014,09,21,13,26,26.60
2014,09,21,13,27,26.80
2014,09,21,13,28,26.80
2014,09,21,13,29,26.90
2014,09,21,13,30,27.10
2014,09,21,13,31,27.20
2014,09,21,13,32,27.40
2014,09,21,13,33,27.50
2014,09,21,13,34,27.60
2014,09,21,13,35,27.60
2014,09,21,13,36,27.60
2014,09,21,13,37,27.60
2014,09,21,13,38,27.60
2014,09,21,13,39,27.60
2014,09,21,13,40,27.60
2014,09,21,13,41,27.40
2014,09,21,13,42,27.40
2014,09,21,13,43,27.30
2014,09,21,13,44,27.30
2014,09,21,13,45,27.20
2014,09,21,13,46,27.20
2014,09,21,13,47,27.20
2014,09,21,13,48,27.20
2014,09,21,13,49,27.20
2014,09,21,13,50,27.20
2014,09,21,13,51,27.20
2014,09,21,13,52,27.10
2014,09,21,13,53,27.10
2014,09,21,13,54,27.00
2014,09,21,13,55,27.00
2014,09,21,13,56,27.00
2014,09,21,13,57,27.00
2014,09,21,13,58,27.00
2014,09,21,13,59,27.00
2014,09,21,14,00,27.10
2014,09,21,14,01,27.10
2014,09,21,14,02,27.10
2014,09,21,14,03,27.10
2014,09,21,14,04,27.00
2014,09,21,14,05,27.00
2014,09,21,14,06,27.00
2014,09,21,14,07,27.00
2014,09,21,14,08,27.00
2014,09,21,14,09,26.90
2014,09,21,14,10,26.80
2014,09,21,14,11,26.80
2014,09,21,14,12,26.70
2014,09,21,14,13,26.60
2014,09,21,14,14,26.60
2014,09,21,14,15,26.60
2014,09,21,14,16,26.60
2014,09,21,14,17,26.60
2014,09,21,14,18,26.60
2014,09,21,14,19,26.60
2014,09,21,14,20,26.60
2014,09,21,14,21,26.70
2014,09,21,14,22,26.70
2014,09,21,14,23,26.70
2014,09,21,14,24,26.70
2014,09,21,14,25,26.70
2014,09,21,14,26,26.70
2014,09,21,14,27,26.70
2014,09,21,14,28,26.70
2014,09,21,14,29,26.70
2014,09,21,14,30,26.70
2014,09,21,14,31,26.60
2014,09,21,14,32,26.60
2014,09,21,14,33,26.60
2014,09,21,14,34,26.60
2014,09,21,14,35,26.50
2014,09,21,14,36,26.50
2014,09,21,14,37,26.40
2014,09,21,14,38,26.40
2014,09,21,14,39,26.40
2014,09,21,14,40,26.40
2014,09,21,14,41,26.40
2014,09,21,14,42,26.50
2014,09,21,14,43,26.50
2014,09,21,14,44,26.50
2014,09,21,14,45,26.50
2014,09,21,14,46,26.50
2014,09,21,14,47,26.40
2014,09,21,14,48,26.40
2014,09,21,14,49,26.40
2014,09,21,14,50,26.40
2014,09,21,14,51,26.40
2014,09,21,14,52,26.30
2014,09,21,14,53,26.30
2014,09,21,14,54,26.30
2014,09,21,14,55,26.30
2014,09,21,14,56,26.30
2014,09,21,14,57,26.30
2014,09,21,14,58,26.20
2014,09,21,14,59,26.20
2014,09,21,15,00,26.20
2014,09,21,15,01,26.20
2014,09,21,15,02,26.20
2014,09,21,15,03,26.20
2014,09,21,15,04,26.20
2014,09,21,15,05,26.20
2014,09,21,15,06,26.20
2014,09,21,15,07,26.20
2014,09,21,15,08,26.20
2014,09,21,15,09,26.20
2014,09,21,15,10,26.10
2014,09,21,15,11,26.10
2014,09,21,15,12,26.10
2014,09,21,15,13,26.10
2014,09,21,15,14,26.00
2014,09,21,15,15,25.90
2014,09,21,15,16,25.90
2014,09,21,15,17,25.90
2014,09,21,15,18,25.90
2014,09,21,15,19,25.90
2014,09,21,15,20,25.90
2014,09,21,15,21,26.00
2014,09,21,15,22,26.00
2014,09,21,15,23,26.00
2014,09,21,15,24,26.00
2014,09,21,15,25,26.00
2014,09,21,15,26,25.90
2014,09,21,15,27,25.90
2014,09,21,15,28,25.80
2014,09,21,15,29,25.80
2014,09,21,15,30,25.70
2014,09,21,15,31,25.70
2014,09,21,15,32,25.70
2014,09,21,15,33,25.70
2014,09,21,15,34,25.70
2014,09,21,15,35,25.80
2014,09,21,15,36,25.80
2014,09,21,15,37,25.80
2014,09,21,15,38,25.80
2014,09,21,15,39,25.80
2014,09,21,15,40,25.80
2014,09,21,15,41,25.80
2014,09,21,15,42,25.70
2014,09,21,15,43,25.70
2014,09,21,15,44,25.70
2014,09,21,15,45,25.70
2014,09,21,15,46,25.70
2014,09,21,15,47,25.60
2014,09,21,15,48,25.60
2014,09,21,15,49,25.50
2014,09,21,15,50,25.40
2014,09,21,15,51,25.40
2014,09,21,15,52,25.40
2014,09,21,15,53,25.30
2014,09,21,15,54,25.30
2014,09,21,15,55,25.30
2014,09,21,15,56,25.20
2014,09,21,15,57,25.10
2014,09,21,15,58,25.10
2014,09,21,15,59,25.10
2014,09,21,16,00,25.10
2014,09,21,16,01,25.10
2014,09,21,16,02,25.10
2014,09,21,16,03,25.00
2014,09,21,16,04,24.90
2014,09,21,16,05,24.90
2014,09,21,16,06,24.90
2014,09,21,16,07,24.90
2014,09,21,16,08,24.90
2014,09,21,16,09,24.90
2014,09,21,16,10,24.80
2014,09,21,16,11,24.80
2014,09,21,16,12,24.80
2014,09,21,16,13,24.80
2014,09,21,16,14,24.80
2014,09,21,16,15,24.80
2014,09,21,16,16,24.80
2014,09,21,16,17,24.70
2014,09,21,16,18,24.70
2014,09,21,16,19,24.70
2014,09,21,16,20,24.70
2014,09,21,16,21,24.80
2014,09,21,16,22,24.80
2014,09,21,16,23,24.80
2014,09,21,16,24,24.80
2014,09,21,16,25,24.80
2014,09,21,16,26,24.80
2014,09,21,16,27,24.80
2014,09,21,16,28,24.70
2014,09,21,16,29,24.70
2014,09,21,16,30,24.70
2014,09,21,16,31,24.70
2014,09,21,16,32,24.70
2014,09,21,16,33,24.60
2014,09,21,16,34,24.60
2014,09,21,16,35,24.60
2014,09,21,16,36,24.60
2014,09,21,16,37,24.60
2014,09,21,16,38,24.60
2014,09,21,16,39,24.60
2014,09,21,16,40,24.60
2014,09,21,16,41,24.60
2014,09,21,16,42,24.60
2014,09,21,16,43,24.60
2014,09,21,16,44,24.60
2014,09,21,16,45,24.50
2014,09,21,16,46,24.40
2014,09,21,16,47,24.40
2014,09,21,16,48,24.40
2014,09,21,16,49,24.30
2014,09,21,16,50,24.30
2014,09,21,16,51,24.30
2014,09,21,16,52,24.30
2014,09,21,16,53,24.20
2014,09,21,16,54,24.10
2014,09,21,16,55,24.00
2014,09,21,16,56,24.00
2014,09,21,16,57,23.90
2014,09,21,16,58,23.90
2014,09,21,16,59,23.90
2014,09,21,17,00,23.90
2014,09,21,17,01,23.90
2014,09,21,17,02,23.90
2014,09,21,17,03,23.80
2014,09,21,17,04,23.80
2014,09,21,17,05,23.70
2014,09,21,17,06,23.70
2014,09,21,17,07,23.70
2014,09,21,17,08,23.60
2014,09,21,17,09,23.40
2014,09,21,17,10,23.40
2014,09,21,17,11,23.30
2014,09,21,17,12,23.20
2014,09,21,17,13,23.20
2014,09,21,17,14,23.30
2014,09,21,17,15,23.30
2014,09,21,17,16,23.40
2014,09,21,17,17,23.40
2014,09,21,17,18,23.40
2014,09,21,17,19,23.40
2014,09,21,17,20,23.30